This is the latest recevied weather packets stored in our database for station/object KT5AL. If no packets are shown the sender has not sent any weather packets the latest 1 day(s).
| Time | Temp. | Humidity | Pressure | Rain* | Wind** | Luminosity | Snow |
|---|---|---|---|---|---|---|---|
| 1778043903 | 14.44° C | 94% | 1012.4 hPa | 0 mm | 4.02 m/s, 360° | - | - |
| 1778043606 | 14.44° C | 94% | 1012.4 hPa | 0 mm | 4.02 m/s, 337° | - | - |
| 1778043303 | 14.44° C | 94% | 1012.4 hPa | 0 mm | 4.47 m/s, 360° | - | - |
| 1778043007 | 14.44° C | 94% | 1012.4 hPa | 0 mm | 4.92 m/s, 22° | - | - |
| 1778042703 | 14.44° C | 94% | 1012.4 hPa | 0 mm | 4.47 m/s, 337° | - | - |
| 1778042407 | 14.44° C | 94% | 1012.4 hPa | 0 mm | 4.47 m/s, 337° | - | - |
| 1778042104 | 14.44° C | 94% | 1012.7 hPa | 0 mm | 4.92 m/s, 337° | - | - |
| 1778041807 | 15° C | 95% | 1012.7 hPa | 0 mm | 4.02 m/s, 337° | - | - |
| 1778041504 | 15° C | 95% | 1012.4 hPa | 0 mm | 4.02 m/s, 337° | - | - |
| 1778041207 | 15° C | 94% | 1012.4 hPa | 0 mm | 4.02 m/s, 337° | - | - |
| 1778040904 | 15° C | 95% | 1012.4 hPa | 0 mm | 4.47 m/s, 337° | - | - |
| 1778040606 | 15° C | 95% | 1012.4 hPa | 0 mm | 4.92 m/s, 360° | - | - |
| 1778040304 | 15° C | 95% | 1012.1 hPa | 0 mm | 4.92 m/s, 337° | - | - |
| 1778040005 | 15° C | 95% | 1012.1 hPa | 0 mm | 4.47 m/s, 337° | - | - |
| 1778039734 | 15° C | 95% | 1011.7 hPa | 0 mm | 5.36 m/s, 337° | - | - |
| 1778039405 | 15° C | 95% | 1011.7 hPa | 0 mm | 4.02 m/s, 337° | - | - |
| 1778039108 | 15° C | 95% | 1011.7 hPa | 0 mm | 5.36 m/s, 337° | - | - |
| 1778038805 | 15.56° C | 95% | 1011.7 hPa | 0 mm | 5.36 m/s, 337° | - | - |
| 1778038508 | 15.56° C | 95% | 1011.4 hPa | 0 mm | 6.26 m/s, 337° | - | - |
| 1778038204 | 15.56° C | 95% | 1011.4 hPa | 0 mm | 4.02 m/s, 22° | - | - |
| 1778037907 | 15.56° C | 94% | 1011 hPa | 0 mm | 4.47 m/s, 360° | - | - |
| 1778037604 | 15.56° C | 94% | 1011 hPa | 0 mm | 5.36 m/s, 337° | - | - |
| 1778037308 | 15.56° C | 94% | 1011 hPa | 0 mm | 5.36 m/s, 360° | - | - |
| 1778037004 | 16.11° C | 93% | 1011 hPa | 0 mm | 4.47 m/s, 337° | - | - |
| 1778036707 | 16.11° C | 92% | 1011 hPa | 0 mm | 4.92 m/s, 337° | - | - |
* Rain latest hour (hover to see other rain measurements)
** Current wind speed in m/s (hover to see current wind gust speed)